Weather History for KRSL - March, 2013

Change the Weather History Date:

Friday, March 1, 2013

  Actual Average Record
Temperature  
Mean Temperature 26 °F -  
Max Temperature 33 °F 51 °F 82 °F (1967)
Min Temperature 17 °F 27 °F -1 °F (1980)
Degree Days  
Heating Degree Days 39    
Moisture  
Dew Point 21 °F    
Average Humidity 87    
Maximum Humidity 100    
Minimum Humidity 70    
Precipitation  
Precipitation 0.00 in - - ()
Sea Level Pressure  
Sea Level Pressure 30.30 in    
Wind  
Wind Speed 7 mph (NNW)    
Max Wind Speed 14 mph    
Max Gust Speed -    
Visibility 7 miles    
Events Fog , Snow    
Averages and records for this station are not official NWS values.
T = Trace of Precipitation, MM = Missing Value Source: NWS Daily Summary

Daily Weather History Graph

Daily Weather History Graph

Search for Another Location

Airport or City:

Trip Planner

Search our weather history database for the weather conditions in past years. The results will help you decide how hot, cold, wet, or windy it might be!

Date:

Astronomy

Mar. 01, 2013 Rise Set
Actual Time 7:07 AM CST 6:28 PM CST
Civil Twilight 6:40 AM CST 6:55 PM CST
Nautical Twilight 6:09 AM CST 7:25 PM CST
Astronomical Twilight 5:38 AM CST 7:56 PM CST
Moon 11:00 PM CST (3/1) 8:57 AM CST (3/1)
Length of Visible Light 12h 14m
Length of Day
11h 21m
Waning Gibbous, 83% of the Moon is Illuminated
Mar 1
Waning Gibbous
Mar 4
Last Quarter
Mar 11
New
Mar 19
First Quarter
Mar 27
Full

Hourly Weather History & Observations

Time (CST) Temp. Windchill Dew Point Humidity Pressure Visibility Wind Dir Wind Speed Gust Speed Precip Events Conditions
12:35 AM 21.2 °F 14.9 °F 19.4 °F 93% 30.21 in 1.8 mi NW 4.6 mph - 0.00 in Snow Light Snow
12:42 AM 19.4 °F 14.3 °F 19.4 °F 100% 30.21 in 0.8 mi NW 3.5 mph - 0.00 in Snow Light Snow
12:53 AM 19.9 °F 14.9 °F 19.0 °F 96% 30.28 in 0.2 mi NNW 3.5 mph - 0.00 in Fog Light Freezing Fog
1:03 AM 23.0 °F 15.8 °F 21.2 °F 93% 30.21 in 2.0 mi NNW 5.8 mph - N/A   Partly Cloudy
1:11 AM 21.2 °F 13.6 °F 19.4 °F 93% 30.22 in 4.0 mi NW 5.8 mph - 0.00 in Snow Light Snow
1:22 AM 19.4 °F 12.8 °F 17.6 °F 93% 30.22 in 2.5 mi WNW 4.6 mph - 0.00 in   Mostly Cloudy
1:30 AM 19.4 °F 11.5 °F 17.6 °F 93% 30.22 in 3.0 mi WNW 5.8 mph - 0.00 in   Overcast
1:53 AM 19.9 °F 13.4 °F 18.0 °F 92% 30.29 in 2.5 mi WNW 4.6 mph - 0.00 in   Mostly Cloudy
2:07 AM 21.2 °F 13.6 °F 19.4 °F 93% 30.22 in 4.0 mi WNW 5.8 mph - N/A   Scattered Clouds
2:53 AM 19.0 °F 11.1 °F 17.1 °F 92% 30.29 in 5.0 mi WNW 5.8 mph - 0.00 in Snow Light Snow
3:53 AM 21.0 °F 12.4 °F 19.0 °F 92% 30.27 in 6.0 mi NNW 6.9 mph - 0.00 in   Partly Cloudy
4:53 AM 21.0 °F 13.4 °F 19.0 °F 92% 30.28 in 7.0 mi North 5.8 mph - N/A   Mostly Cloudy
5:39 AM 21.2 °F 12.6 °F 17.6 °F 86% 30.22 in 7.0 mi NNW 6.9 mph - N/A   Mostly Cloudy
5:53 AM 21.2 °F 12.6 °F 19.4 °F 93% 30.22 in 6.0 mi NNW 6.9 mph - N/A   Overcast
6:53 AM 21.9 °F 13.4 °F 19.0 °F 89% 30.32 in 7.0 mi NNW 6.9 mph - N/A   Overcast
7:53 AM 23.0 °F 15.8 °F 21.0 °F 92% 30.33 in 6.0 mi NW 5.8 mph - N/A   Overcast
8:53 AM 26.1 °F 17.6 °F 23.0 °F 88% 30.35 in 8.0 mi North 8.1 mph - N/A   Overcast
9:19 AM 26.6 °F 18.2 °F 23.0 °F 86% 30.28 in 8.0 mi North 8.1 mph - N/A   Overcast
9:53 AM 27.0 °F 16.7 °F 23.0 °F 85% 30.36 in 9.0 mi North 11.5 mph - N/A   Overcast
10:53 AM 28.4 °F 20.4 °F 23.0 °F 80% 30.29 in 9.0 mi North 8.1 mph - N/A   Overcast
11:28 AM 28.4 °F 19.1 °F 23.0 °F 80% 30.29 in 9.0 mi NNW 10.4 mph - N/A   Overcast
11:53 AM 28.9 °F 19.2 °F 24.1 °F 82% 30.37 in 8.0 mi NNW 11.5 mph - N/A   Overcast
12:26 PM 28.4 °F 18.0 °F 24.8 °F 86% 30.29 in 10.0 mi NNW 12.7 mph - N/A   Overcast
12:53 PM 30.0 °F 19.5 °F 24.1 °F 79% 30.36 in 10.0 mi NW 13.8 mph - N/A   Overcast
1:04 PM 30.2 °F 19.8 °F 24.8 °F 80% 30.28 in 10.0 mi NNW 13.8 mph - N/A   Overcast
1:53 PM 30.9 °F 20.7 °F 25.0 °F 79% 30.34 in 10.0 mi NNW 13.8 mph - N/A   Mostly Cloudy
2:53 PM 30.2 °F 19.8 °F 24.8 °F 80% 30.27 in 10.0 mi NNW 13.8 mph - N/A   Mostly Cloudy
3:53 PM 30.9 °F 21.2 °F 24.1 °F 76% 30.34 in 10.0 mi NNW 12.7 mph - N/A   Overcast
4:48 PM 32.0 °F 22.5 °F 24.8 °F 75% 30.27 in 10.0 mi North 12.7 mph - N/A   Scattered Clouds
4:53 PM 33.8 °F 24.3 °F 24.8 °F 70% 30.27 in 10.0 mi North 13.8 mph - N/A   Scattered Clouds
5:53 PM 30.2 °F 20.8 °F 24.8 °F 80% 30.28 in 10.0 mi North 11.5 mph - N/A   Clear
6:53 PM 28.0 °F 20.8 °F 21.9 °F 78% 30.38 in 10.0 mi North 6.9 mph - N/A   Clear
7:53 PM 25.0 °F - 21.0 °F 85% 30.39 in 10.0 mi Calm Calm - N/A   Clear
8:53 PM 24.1 °F 19.7 °F 21.0 °F 88% 30.40 in 10.0 mi North 3.5 mph - N/A   Clear
9:53 PM 23.0 °F 17.0 °F 19.9 °F 88% 30.40 in 10.0 mi NNW 4.6 mph - N/A   Clear
10:53 PM 19.0 °F 11.1 °F 16.0 °F 88% 30.41 in 7.0 mi West 5.8 mph - N/A   Clear
11:53 PM 17.1 °F 10.0 °F 16.0 °F 96% 30.41 in 4.0 mi WNW 4.6 mph - N/A   Clear